{"data":{"norad_id":59609,"epoch":"2026-05-24T20:06:55.833408Z","epoch_age_seconds":95938,"freshness":"FRESH","line1":"1 59609U 24080J   26144.83814622  .00004640  00000+0  17797-3 0  9991","line2":"2 59609  42.9999 323.9592 0001423 267.1951  92.8737 15.27588097116227","mean_motion":15.27588097,"eccentricity":0.0001423,"inclination_deg":42.9999,"raan_deg":323.9592,"arg_perigee_deg":267.1951,"mean_anomaly_deg":92.8737,"bstar":0.00017797,"rev_number":11622,"period_min":94.26624905156,"perigee_km":482.0485074845,"apogee_km":484.00119414724,"semimajor_km":6861.1618508159,"source":"CELESTRAK","updated_at":"2026-05-25T13:38:19.009208Z"}}